sat.trackr.live / text

‹ back to catalog

STARLINK-30182

NORAD 57412 · 2023-102J

PAYLOAD ACTIVE UNKNOWN

§ Identity

Operator
Country
US
Launch date
2023-07-20
Launch site
AFWTR
Launch vehicle
Mass (kg)
RCS (m²)

Purposes: comms

External: N2YO · Heavens-Above · Gunter

§ Orbital elements

Epoch: 2026-09-20T21:28:09.740352Z

Period
90.89 min
Inclination
42.9988°
Eccentricity
0.0001735
Mean motion
15.84295075 rev/d
Perigee alt
317.1 km
Apogee alt
319.5 km
Semi-major
6,696.4 km
B*
8.7271e-4
RAAN
215.7054°
Arg perigee
256.7469°
Mean anomaly
103.3210°
Rev number
17,621

§ Raw data

STARLINK-301821 57412U 23102J   26263.89455718  .00209120  00000+0  87271-3 0  99942 57412  42.9988 215.7054 0001735 256.7469 103.3210 15.84295075176213

JSON: /api/v1/satellites/57412 · /tle

For live sub-satellite position, see the globe view (requires WebGL).

§ Visibility from observer

Set your observer location to see the next 7 days of passes ≥ 10°. The values pass through the URL so the page stays shareable.

No JS? Fill the form by hand. The geolocation button needs JavaScript.